Simultaneous Nadir Overpasses (SNOs) Predictions

Prediction of SNOs between GOES-14 and NOAA-20 Satellite Orbit:

Table of predicted SNOs for the next 14.0 days since TLE Epoch: 7/4/2020
Index Date Time (GOES-14) GOES-14 Lat,Lon NOAA-20 Lat,Lon Distance(km) Time Diff (sec)
1 07/06/2020 08:24:05 -0.20,-104.24 -0.02,-105.14 101.84 80
2 07/07/2020 08:07:59 -0.18,-104.24 -1.01,-100.60 415.55 80
3 07/08/2020 20:27:16 0.22,-104.45 -0.13,-105.91 167.09 80
4 07/09/2020 20:11:10 0.20,-104.46 0.86,-101.38 350.65 80
5 07/11/2020 08:30:18 -0.24,-104.27 0.31,-106.65 270.97 80
6 07/12/2020 08:14:12 -0.22,-104.28 -0.68,-102.11 246.70 80
7 07/13/2020 20:33:29 0.26,-104.49 -0.40,-107.44 335.87 80
8 07/14/2020 20:17:24 0.24,-104.50 0.60,-102.90 181.93 80
9 07/16/2020 08:36:31 -0.28,-104.31 0.58,-108.17 439.42 80
10 07/17/2020 08:20:26 -0.27,-104.32 -0.41,-103.63 77.89 80
